CZ-3C DEB, 40200

Orbit data source: Space-Track

CZ-3C DEB, 40200 is space debris in HEO originally from a launch on Fri, 24 Feb 2012 UTC launched from the Xichang Space Center, China (XSC). Debris objects in space refer to the collection of defunct objects orbiting the Earth. Examples of debris include non-operational satellites, rocket bodies, and fragments generated from explosions, collisions, or faulty payload assembly.

Loading next visibility...
CZ-3C DEB details
Identifier
40200, 2012-008K
Orbit
HEO
Last TLE update2 days ago
Origin
Flag of CNCASC (CN / PRC)
ManufacturerCALT
MissionSpacecraft
Bus & MotorUnknown
MassUnknown
Launch date (UTC)
2012-02-24 (13 years ago)
Launch vehicleUnknown
Launch site
Xichang Space Center, China (XSC)
Object type
Payload
Rocket body
Debris
Shape & HBRUnknown
Radar Cross SectionMedium (>0.1 m² and <1 m²)

Expand to show TLE details & history

TLE from 2 days ago
0 CZ-3C DEB
1 40200U 12008K   24360.25835248 -.00000209  00000-0  00000+0 0  9990
2 40200  21.2389  55.7047 7002954 203.7224  94.6866  2.19233010989149
Epoch: 2024-12-25T06:12Z
Definitive object data (Epoch: 2024-12-25T06:12:01.654Z)
Latitude0.00003°
Longitude-131.52794°
Altitude29,160.469 km
Speed2.551 km/s
True Right ascension03h 42m 56s
True Declination0° 00' 00"
Sunlit
Object was in daylight at TLE epoch
Visualization TLE readout
Latitude16.15678°
Longitude-83.98995°
Altitude28,308.768 km
Speed2.657 km/s
Apparent Right ascension06h 59m 47s
Apparent Declination8° 18' 58"
Sunlit
Object is in daylight
Visualization observer readout
Local Sidereal Time19:45:40
Azimuth15.023° NNE
Elevation-40.614°
Doppler factor1
Orbital elements
Apogee altitude36,187.251 km
Perigee altitude1,124.702 km
Semi-major axis25,034.114 km
Eccentricity0.7002954
Inclination21.2389°
RAAN55.7047°
Arg. of periapsis203.7224°
True anomaly156.2594°
Mean anomaly94.6866°
Eccentric anomaly126.81065°
Mean motion0.54795 °/min
BSTARUnknown
Orbital period656.99 mins
Loading maneuver chart data...
Loading historical data...
Loading historical data...
Loading historical data...
Loading historical data...
Loading historical data...
Loading historical data...
Loading historical data...

CZ-3C DEB Visibility forecast

Observer location: undefined°, undefined

Span
Click to sort rows by Start time (UTC) header in descending order
Start Az.
Max El. time (UTC)
Max El. Az.
Max El.
End time (UTC)
End Az.
581 mins2024-12-26 23:57:50.997Z152.472° SSE2024-12-27 08:24:50.997Z170.223° S41.741°2024-12-27 09:38:50.997Z105.956° ESE
|